Regional Weather Roundup
Issued by NWS Kansas City/Pleasant Hill, MO

Home | Current Version | Previous Version | Text Only | Print | Product List | Glossary On
Versions: 1 2 3 4 5 6 7 8 9 10 11 12 13 14 15 16 17 18 19 20 21 22 23 24 25 26 27 28 29 30 31 32 33 34 35 36 37 38 39 40 41 42 43 44 45 46 47 48 49 50
000
ASUS43 KEAX 020011
RWREAX

WEATHER ROUNDUP FOR EASTERN KANSAS AND NORTHWEST MISSOURI
NATIONAL WEATHER SERVICE KANSAS CITY/PLEASANT HILL MO
700 PM CDT FRI AUG 01 2014

KSZ040-057-103>105-MOZ028-029-037-043-020100-
...KANSAS CITY METROPOLITAN AREA...

CITY           SKY/WX    TMP DP  RH WIND       PRES   REMARKS
K.C. INTL      SUNNY     82  61  48 E9        30.04F
6HR MIN TEMP:  80; 6HR MAX TEMP:  85;

K.C. DOWNTOWN  SUNNY     83  62  49 NE12      30.03S
6HR MIN TEMP:  82; 6HR MAX TEMP:  87;

LEES SUMMIT    SUNNY     82  61  48 E6        30.05F
6HR MIN TEMP:  80; 6HR MAX TEMP:  84;

OLATHE - IXD   SUNNY     83  61  47 E8        30.04F
6HR MIN TEMP:  82; 6HR MAX TEMP:  86;

OLATHE - OJC   SUNNY     81  61  50 SE6       30.04S
6HR MIN TEMP:  80; 6HR MAX TEMP:  84;

LAWRENCE       SUNNY     85  63  47 E6        30.02F

$$

MOZ001>008-011>017-020>025-030>033-038>040-044>046-053-054-020100-
...NORTHERN AND CENTRAL MISSOURI...

CITY           SKY/WX    TMP DP  RH WIND       PRES   REMARKS
ST. JOSEPH     SUNNY     82  61  48 E7        30.04F
6HR MIN TEMP:  79; 6HR MAX TEMP:  85;

MOSBY          CLEAR     81  61  50 E3        30.05S
WHITEMAN AFB   SUNNY     81  51  36 NE7       30.05S
6HR MIN TEMP:  78; 6HR MAX TEMP:  84;

CLINTON        MOSUNNY   81  64  57 N5        30.05R
SEDALIA        CLOUDY    81  61  50 NE8       30.06S
6HR MIN TEMP:  75; 6HR MAX TEMP:  84;

WARSAW         NOT AVBL
MARSHALL       SUNNY     82  63  51 N3        30.06S
CHILLICOTHE      N/A     84  59  42 CALM      30.05F
6HR MIN TEMP:  78; 6HR MAX TEMP:  86;

MOBERLY        SUNNY     81  63  54 CALM      30.07F
KIRKSVILLE     SUNNY     82  60  47 CALM      30.07S
6HR MIN TEMP:  79; 6HR MAX TEMP:  85;


$$

MOZ041-047>049-056>058-063>065-088>090-097-020100-
...EASTERN AND SOUTHERN MISSOURI...

CITY           SKY/WX    TMP DP  RH WIND       PRES   REMARKS
ST. LOUIS INTL CLOUDY    76  66  71 NE7       30.07F
6HR MIN TEMP:  75; 6HR MAX TEMP:  86; 6HR PCP: TRACE;

SPIRIT OF STL  CLOUDY    70  67  90 CALM      30.06S
COLUMBIA       PTSUNNY   80  61  52 E12       30.06F
JEFFERSON CITY MOSUNNY   79  62  56 E5        30.04F
MEXICO         MOSUNNY   75  64  69 CALM      30.07F
ROLLA          PTSUNNY   78  59  51 NE10      30.06S
LEBANON        SUNNY     81  61  50 NE8       30.06R
OSAGE BEACH      N/A     81  63  54 NE6       30.05R
SPRINGFIELD    MOSUNNY   80  62  54 NE3       30.05S
BRANSON        SUNNY     82  64  54 CALM      30.06
NEVADA         MOSUNNY   82  64  54 SE7       30.05R
JOPLIN         SUNNY     82  61  48 S7        30.04F
WEST PLAINS    SUNNY     79  63  57 S5        30.07S
MALDEN         SUNNY     84  64  51 CALM      30.03S

$$

IAZ060-094-KSZ022-034>040-054-083-096-NEZ052-066-093-020100-
...KANSAS...SOUTHEAST NEBRASKA AND IOWA...

CITY           SKY/WX    TMP DP  RH WIND       PRES   REMARKS
TOPEKA         SUNNY     86  62  44 E12       30.01S
6HR MIN TEMP:  85; 6HR MAX TEMP:  91;

MANHATTAN      SUNNY     89  56  32 NE6       29.98F
EMPORIA        SUNNY     83  64  52 S14       30.01S
CHANUTE        SUNNY     82  63  52 S7        30.03F
WICHITA        MOSUNNY   86  60  41 SE9       30.00F
OMAHA          MOSUNNY   82  60  47 E6        30.06F
LINCOLN        SUNNY     83  58  42 E9        30.07S
FALLS CITY     SUNNY     82  63  52 E7        30.04F
LAMONI         MOSUNNY   76  64  66 W6        30.07F
DES MOINES     MOSUNNY   82  58  43 E6        30.05F

$$




USA.gov is the U.S. government's official web portal to all federal, state and local government web resources and services.